Simultaneous Nadir Overpasses (SNOs) Predictions

Prediction of SNOs between GOES-16 and AQUA Satellite Orbit:

Table of predicted SNOs for the next 14.0 days since TLE Epoch: 6/5/2021
Index Date Time (GOES-16) GOES-16 Lat,Lon AQUA Lat,Lon Distance(km) Time Diff (sec)
1 06/05/2021 18:29:05 0.01, -75.23 0.47, -73.15 237.13 80
2 06/06/2021 06:47:41 -0.02, -75.23 0.61, -78.31 349.95 80
3 06/08/2021 06:35:29 -0.02, -75.23 0.03, -75.35 13.79 80
4 06/10/2021 06:25:58 -0.02, -75.24 -0.61, -72.39 323.25 80
5 06/10/2021 18:44:42 0.03, -75.24 -0.49, -77.58 266.41 80
6 06/12/2021 18:35:11 0.03, -75.25 0.16, -74.63 70.82 80
7 06/14/2021 18:22:59 0.02, -75.27 0.76, -71.67 408.58 80
8 06/15/2021 06:41:35 -0.03, -75.27 0.33, -76.83 178.05 80
9 06/17/2021 06:32:04 -0.03, -75.29 -0.32, -73.88 160.44 80
10 06/17/2021 18:50:48 0.03, -75.30 -0.76, -79.07 428.88 80
